Flag for U.S.A. Weather past 2 weeks in Salem, Oregon, U.S.A.

Now
70 °F

Broken clouds.


Feels Like: 77 °F
Forecast: 58 / 75 °F
Wind: N/A

Location: McNary Field

Current Time: Aug 31, 2015 at 1:12:44 PM

Latest Report: Aug 31, 2015 at 11:56 AM


Visibility: 10 mi

Pressure: 30.04 "Hg

Humidity: 53%

Dew point: 52 °F

Location of SalemLocation

Historic Weather in Salem — Graph

°F

Salem temperature yesterday

Maximum temperature yesterday: 73 °F (at 4:56 PM)
Minimum temperature yesterday: 58 °F (at 7:56 AM)
Average temperature yesterday: 63 °F

Past Weeks' High & Low Weather Summary

 TemperatureHumidityPressure
High97 °F (Aug 19, 3:56 PM)93% (Aug 30, 7:56 AM)30.17 "Hg (Aug 30, 7:56 AM)
Low52 °F (Aug 25, 5:56 AM)13% (Aug 25, 5:56 PM)29.56 "Hg (Aug 29, 1:56 AM)
Average70 °F53%29.95 "Hg
* Reported Aug 16 11:56 AM — Aug 31 11:56 AM, Salem, Weather by CustomWeather, © 2015

Note: Actual official high and low records may vary slightly from our data, if they occured in-between our weather recording intervals... More about our weather records

Advertising

Salem weather history for previous 24 hours

 ConditionsComfort  
Time TempWeatherWind HumidityBarometerVisibility
11:56 AM
Mon, Aug 31
70 °FBroken clouds.N/A53%30.04 "Hg10 mi
10:56 AM67 °FBroken clouds.9 mph59%30.06 "Hg10 mi
9:56 AM66 °FBroken clouds.12 mph63%30.06 "Hg10 mi
8:56 AM64 °FBroken clouds.9 mph70%30.06 "Hg10 mi
7:56 AM59 °FBroken clouds.9 mph84%30.07 "Hg10 mi
6:56 AM57 °FPassing clouds.6 mph87%30.05 "Hg10 mi
5:56 AM59 °FOvercast.7 mph84%30.05 "Hg10 mi
4:56 AM58 °FPassing clouds.7 mph84%30.05 "Hg10 mi
3:56 AM60 °FOvercast.9 mph80%30.05 "Hg10 mi
2:56 AM59 °FClear.9 mph81%30.06 "Hg10 mi
1:56 AM60 °FOvercast.9 mph80%30.06 "Hg10 mi
12:56 AM58 °FOvercast.8 mph84%30.06 "Hg10 mi
11:56 PM
Sun, Aug 30
58 °FPassing clouds.6 mph84%30.07 "Hg10 mi
10:56 PM58 °FClear.7 mph81%30.07 "Hg10 mi
9:56 PM61 °FPassing clouds.5 mph72%30.07 "Hg10 mi
8:56 PM63 °FClear.6 mph68%30.06 "Hg10 mi
7:56 PM66 °FScattered clouds.8 mph59%30.05 "Hg10 mi
6:56 PM69 °FScattered clouds.14 mph51%30.04 "Hg10 mi
5:56 PM71 °FBroken clouds.13 mph45%30.03 "Hg10 mi
4:56 PM73 °FBroken clouds.14 mph44%30.03 "Hg10 mi
3:56 PM72 °FOvercast.10 mph46%30.03 "Hg10 mi
1:56 PM69 °FBroken clouds.9 mph63%30.02 "Hg10 mi
Weather by CustomWeather, © 2015

See weather overviewHow to use our weather pages